Hourly Data Report for October 05, 2013

All times are specified in Local Standard Time (LST). Add 1 hour to adjust for Daylight Saving Time where and when it is observed.

GRISE FIORD CLIMATE
NUNAVUT

76°25'22.040" N
82°54'08.020" W
44.50 m
2402351
71971
NGC

Download Data

Hourly Data (October 2013)
Hourly Data Report for October 5, 2013
Temp Definition
°C
Dew Point Temp Definition
°C
Rel Hum Definition
%
Wind Dir Definition
10's deg

Wind Spd Definition
km/h
Visibility Definition
km
Stn Press Definition
kPa
Hmdx Definition


Wind Chill Definition


Weather Definition


TIME
00:00 -11.4 -16.7 65 7 19   101.50   -19 LegendNANA
01:00 -11.3 -16.7 64 7 20   101.50   -20 LegendNANA
02:00 -11.4 -16.8 64 6 22   101.49   -20 LegendNANA
03:00 -10.8 -16.6 62 7 20   101.48   -19 LegendNANA
04:00 -10.7 -16.1 64 7 17   101.45   -18 LegendNANA
05:00 -10.3 -16.2 62 9 9   101.46   -15 LegendNANA
06:00 -10.5 -16.0 64 8 17   101.43   -18 LegendNANA
07:00 -10.6 -15.8 66 7 20   101.40   -19 LegendNANA
08:00 -10.1 -15.7 64 11 7   101.37   -14 LegendNANA
09:00 -10.1 -15.7 64 34 4   101.33   -12 LegendNANA
10:00 -9.9 -15.7 63 9 17   101.28   -17 LegendNANA
11:00 -9.8 -15.9 61 31 4   101.27   -12 LegendNANA
12:00 -9.9 -16.2 60 31 11   101.25   -15 LegendNANA
13:00 -9.9 -16.3 59 8 7   101.25   -14 LegendNANA
14:00 -10.4 -16.8 59 7 15   101.26   -17 LegendNANA
15:00 -10.7 -17.1 59 7 7   101.26   -15 LegendNANA
16:00 -10.8 -17.6 57 7 11   101.25   -17 LegendNANA
17:00 -11.0 -17.8 57 7 13   101.26   -17 LegendNANA
18:00 -11.3 -17.8 59 13 6   101.27   -15 LegendNANA
19:00 -11.4 -17.6 60 29 7   101.24   -16 LegendNANA
20:00 -10.1 -17.0 57 17 4   101.23   -12 LegendNANA
21:00 -10.8 -15.6 68 26 11   101.23   -17 LegendNANA
22:00 -9.6 -16.3 58 1 22   101.21   -18 LegendNANA
23:00 -9.9 -15.6 63 24 6   101.27   -13 LegendNANA

Notes on Data Quality.

Legend

  • E = Estimated
  • M = Missing
  • NA = Not Available
  • ‡ = Partner data that is not subject to review by the National Climate Archives
Date modified: